Lakehurst, NJ

9:17 PM EST on February 11, 2016 (GMT -0500)
Lakehurst Naes

Weather History for KNEL - July, 2013

Change the Weather History Date:

Saturday, July 6, 2013

  Actual Average Record
Temperature  
Mean Temperature 92 °F -  
Max Temperature 87 °F 81 °F 100 °F (1999)
Min Temperature 80 °F 65 °F 57 °F (2000)
Cooling Degree Days 27    
Growing Degree Days 42 (Base 50)    
Moisture  
Dew Point 72 °F    
Average Humidity 54    
Maximum Humidity 77    
Minimum Humidity 33    
Precipitation  
Precipitation 0.00 in - - ()
Sea Level Pressure  
Sea Level Pressure 30.11 in    
Wind  
Wind Speed 6 mph (WSW)    
Max Wind Speed 14 mph    
Max Gust Speed 20 mph    
Averages and records for this station are not official NWS values.
T = Trace of Precipitation, MM = Missing Value Source: NWS Daily Summary

Daily Weather History Graph

Daily Weather History Graph

Search for Another Location

Airport or City:

Trip Planner

Search our weather history database for the weather conditions in past years. The results will help you decide how hot, cold, wet, or windy it might be!

Date:

Astronomy

Jul. 06, 2013 Rise Set
Actual Time 5:35 AM EDT 8:29 PM EDT
Civil Twilight 5:02 AM EDT 9:01 PM EDT
Nautical Twilight 4:21 AM EDT 9:42 PM EDT
Astronomical Twilight 3:34 AM EDT 10:29 PM EDT
Moon 4:18 AM EDT (7/6) 7:08 PM EDT (7/6)
Length of Visible Light 15h 58m
Length of Day
14h 54m
Waning Crescent, 2% of the Moon is Illuminated
Jul 6
Waning Crescent
Jul 8
New
Jul 15
First Quarter
Jul 22
Full
Jul 29
Last Quarter

Hourly Weather History & Observations

Time (EDT) Temp. Heat Index Dew Point Humidity Pressure Visibility Wind Dir Wind Speed Gust Speed Precip Events Conditions
12:00 AM 81.0 °F 85.8 °F 73.0 °F 77% 30.16 in - SSW 3.5 mph - N/A   Clear
1:00 AM 80.1 °F 83.8 °F 72.0 °F 76% 30.16 in - SSW 3.5 mph - N/A   Clear
2:00 AM 82.9 °F 88.8 °F 73.0 °F 72% 30.15 in - SW 4.6 mph - N/A   Clear
3:00 AM 84.9 °F 91.4 °F 73.0 °F 67% 30.15 in - SW 4.6 mph - N/A   Clear
4:00 AM 82.0 °F 87.4 °F 73.0 °F 74% 30.14 in - WSW 3.5 mph - N/A   Clear
5:00 AM 82.0 °F 87.4 °F 73.0 °F 74% 30.14 in - SW 4.6 mph - N/A   Clear
6:00 AM 82.9 °F 88.8 °F 73.0 °F 72% 30.15 in - SW 4.6 mph - N/A   Clear
7:00 AM 88.0 °F 96.5 °F 73.9 °F 63% 30.16 in - WSW 5.8 mph - N/A   Clear
8:00 AM 90.0 °F 100.2 °F 75.0 °F 61% 30.15 in - WSW 9.2 mph - N/A   Clear
9:00 AM 91.9 °F 103.2 °F 75.0 °F 58% 30.15 in - West 12.7 mph - N/A   Clear
10:00 AM 96.1 °F 108.6 °F 75.0 °F 51% 30.14 in - West 10.4 mph - N/A   Partly Cloudy
11:00 AM 99.0 °F 110.9 °F 73.9 °F 45% 30.13 in - WSW 8.1 mph - N/A   Partly Cloudy
12:00 PM 100.0 °F 111.0 °F 73.0 °F 42% 30.12 in - West 10.4 mph - N/A   Partly Cloudy
1:00 PM 102.0 °F 111.3 °F 71.1 °F 37% 30.11 in - SW 9.2 mph - N/A   Clear
2:00 PM 102.0 °F 111.3 °F 71.1 °F 37% 30.09 in - WSW 13.8 mph 19.6 mph N/A   Partly Cloudy
3:00 PM 104.0 °F 114.0 °F 71.1 °F 35% 30.08 in - West 11.5 mph 17.3 mph N/A   Partly Cloudy
4:00 PM 100.9 °F 109.7 °F 71.1 °F 38% 30.07 in - WSW 6.9 mph - N/A   Scattered Clouds
5:00 PM 102.9 °F 109.9 °F 69.1 °F 33% 30.06 in - West 9.2 mph - N/A   Partly Cloudy
6:00 PM 100.9 °F 108.9 °F 70.0 °F 37% 30.05 in - WSW 10.4 mph - N/A   Partly Cloudy
7:00 PM 100.0 °F 107.8 °F 70.0 °F 38% 30.04 in - WSW 10.4 mph - N/A   Clear
8:00 PM 97.0 °F 105.5 °F 72.0 °F 44% 30.05 in - WSW 5.8 mph - N/A   Clear
9:00 PM 91.0 °F 98.2 °F 72.0 °F 53% 30.05 in - SW 4.6 mph - N/A   Clear
10:00 PM 91.0 °F 97.6 °F 71.1 °F 52% 30.07 in - WSW 4.6 mph - N/A   Clear
11:00 PM 91.0 °F 98.2 °F 72.0 °F 53% 30.08 in - WSW 6.9 mph - N/A   Clear